Location: Namasale
(1.5000°N, 32.6167°E)
Time: 18:24:41
(UTC+00:00)

Vanguard 1 Rocket - Pass Details

Date: 20 April 2021
Orbit: 651 x 4225 km, 34.3° (Epoch: 17 May)

Event Time Altitude Azimuth Distance (km) Brightness Sun altitude
Rises 02:19:49 0° 227° (SW) 8,216 - -21.4°
Exits shadow 02:23:46 - 221° (SW) 7,830 11.7 -20.4°
Reaches altitude 10° 02:28:16 10° 213° (SSW) 7,405 11.6 -19.3°
Maximum altitude 02:46:41 23° 168° (SSE) 6,042 11.5 -14.8°
Drops below altitude 10° 03:01:36 10° 122° (ESE) 6,077 12.3 -11.2°
Sets 03:07:16 0° 108° (ESE) 6,531 12.9 -9.8°
